Flag for U.S.A. Weather past 2 weeks in Wheaton, Illinois, U.S.A.

Now
34 °F

Light rain. More clouds than sun.


Feels Like: 22 °F
Forecast: 28 / 45 °F
Wind: 23 mph from South

Location: Dupage Airport

Current Time: Mar 29, 2015 at 12:43:01 PM

Latest Report: Mar 29, 2015 at 11:52 AM


Visibility: 10 mi

Pressure: 29.96 "Hg

Humidity: 76%

Dew point: 27 °F

Location of WheatonLocation

Historic Weather in Wheaton — Graph

°F

Wheaton temperature yesterday

Maximum temperature yesterday: 39 °F (at 3:52 PM)
Minimum temperature yesterday: 14 °F (at 4:52 AM)
Average temperature yesterday: 28 °F

Past Weeks' High & Low Weather Summary

 TemperatureHumidityPressure
High72 °F (Mar 16, 3:52 PM)97% (Mar 21, 5:52 AM)30.36 "Hg (Mar 21, 5:52 AM)
Low14 °F (Mar 28, 4:52 AM)21% (Mar 18, 12:52 PM)29.74 "Hg (Mar 16, 5:52 PM)
Average38 °F62%30.15 "Hg
* Reported Mar 14 10:52 AM — Mar 29 10:52 AM, Wheaton, Weather by CustomWeather, © 2015

Note: Actual official high and low records may vary slightly from our data, if they occured in-between our weather recording intervals... More about our weather records

Advertising

Wheaton weather history for previous 24 hours

 ConditionsComfort  
Time TempWeatherWind HumidityBarometerVisibility
10:52 AM
Sun, Mar 29
34 °FRain. Mostly cloudy.21 mph70%29.99 "Hg7 mi
9:52 AM37 °FPartly sunny.26 mph48%30.03 "Hg10 mi
8:52 AM34 °FSunny.23 mph52%30.09 "Hg10 mi
7:52 AM31 °FSunny.17 mph59%30.12 "Hg10 mi
6:52 AM30 °FClear.16 mph59%30.15 "Hg10 mi
5:52 AM28 °FClear.13 mph61%30.14 "Hg10 mi
4:52 AM27 °FClear.10 mph63%30.16 "Hg10 mi
3:52 AM26 °FClear.9 mph63%30.19 "Hg10 mi
2:52 AM25 °FClear.10 mph66%30.21 "Hg10 mi
1:52 AM24 °FClear.8 mph65%30.25 "Hg10 mi
12:52 AM25 °FClear.8 mph60%30.27 "Hg10 mi
11:52 PM
Sat, Mar 28
24 °FClear.7 mph62%30.28 "Hg10 mi
10:52 PM25 °FClear.7 mph55%30.29 "Hg10 mi
9:52 PM29 °FClear.8 mph47%30.29 "Hg10 mi
8:52 PM30 °FClear.6 mph41%30.30 "Hg10 mi
7:52 PM33 °FSunny.8 mph36%30.29 "Hg10 mi
6:52 PM35 °FSunny.8 mph31%30.29 "Hg10 mi
5:52 PM39 °FSunny.6 mph25%30.29 "Hg10 mi
4:52 PM39 °FSunny.5 mph24%30.30 "Hg10 mi
3:52 PM39 °FSunny.6 mph24%30.31 "Hg10 mi
2:52 PM37 °FSunny.7 mph24%30.32 "Hg10 mi
1:52 PM36 °FSunny.6 mph27%30.33 "Hg10 mi
12:52 PM35 °FSunny.6 mph29%30.35 "Hg10 mi
Weather by CustomWeather, © 2015

See weather overviewHow to use our weather pages